Date,Online,Paper forms
8 May 2024,108,5
7 May 2024,110,11
6 May 2024,77,0
5 May 2024,103,0
4 May 2024,102,0
3 May 2024,288,0
2 May 2024,542,5
1 May 2024,347,5
30 Apr 2024,354,4
29 Apr 2024,356,5
28 Apr 2024,252,1
27 Apr 2024,254,0
26 Apr 2024,374,6
25 Apr 2024,518,1
24 Apr 2024,1939,77
23 Apr 2024,1669,55
22 Apr 2024,1221,74
21 Apr 2024,635,3
20 Apr 2024,730,1
19 Apr 2024,946,46
18 Apr 2024,900,38
17 Apr 2024,922,41
16 Apr 2024,1439,40
15 Apr 2024,1358,61
14 Apr 2024,545,1
13 Apr 2024,537,0
12 Apr 2024,773,41
11 Apr 2024,848,58
10 Apr 2024,857,62
9 Apr 2024,839,47
8 Apr 2024,904,68
7 Apr 2024,581,0
6 Apr 2024,593,3
5 Apr 2024,758,35
4 Apr 2024,1038,58
3 Apr 2024,1094,46
2 Apr 2024,841,37
1 Apr 2024,438,0
31 Mar 2024,333,1
30 Mar 2024,380,1
29 Mar 2024,386,0
28 Mar 2024,617,38
27 Mar 2024,739,24
26 Mar 2024,565,27
25 Mar 2024,607,37
24 Mar 2024,385,3
23 Mar 2024,444,0
22 Mar 2024,521,12
21 Mar 2024,491,14
20 Mar 2024,536,22
19 Mar 2024,480,20
18 Mar 2024,394,12
17 Mar 2024,228,0
16 Mar 2024,255,1
15 Mar 2024,399,15
14 Mar 2024,547,17
13 Mar 2024,328,10
12 Mar 2024,307,14
11 Mar 2024,401,21
10 Mar 2024,214,0
9 Mar 2024,170,1
